Tracking 19832 objects as of 24-Aug-2019
HD Live streaming from Space Station
objects crossing your sky now

COSMOS 2228

Track COSMOS 2228 now!
10-day predictions
COSMOS 2228 is classified as:


NORAD ID: 22286
Int'l Code: 1992-094A
Perigee: 596.5 km
Apogee: 625.8 km
Inclination: 82.5 °
Period: 96.8 minutes
Semi major axis: 6982 km
RCS: 5.331 m2 (large)
Launch date: December 25, 1992
Source: Commonwealth of Independent States (former USSR) (CIS)
Launch site: PLESETSK MISSILE AND SPACE COMPLEX (PKMTR)
aabbcc
Your satellite tracking list
Your tracking list is empty




NASA's NSSDC Master Catalog

Two Line Element Set (TLE):
1 22286U 92094A   19235.75776159  .00000097  00000-0  77979-5 0  9991
2 22286  82.5229 341.7396 0020988 357.5785   2.5327 14.88061879441099
Source of the keplerian elements: AFSPC